Location: Bh?mavarapp?du
(16.7041°N, 80.6518°E)
Time: 02:23:52
(UTC+00:00)

Palapa 6 Rocket - Pass Details

Date: 21 April 2021
Orbit: 484 x 1216 km, 22.7° (Epoch: 15 May)

Event Time Altitude Azimuth Distance (km) Brightness Sun altitude
Rises 13:23:56 0° 267° (W) 2,907 8.2 -7.7°
Reaches altitude 10° 13:26:30 10° 272° (W) 1,897 7.1 -8.3°
Maximum altitude 13:30:41 49° 348° (NNW) 684 3.5 -9.3°
Drops below altitude 10° 13:34:23 10° 64° (ENE) 1,679 4.9 -10.1°
Enters shadow 13:34:48 - 66° (ENE) 1,840 5.0 -10.2°
